Humidity-temperature Sensor

Selected Measurement Type: Air Temperature

 
Air Temperature [°C]     6 entries per hour
Showing data from 11/18/2014 (00:00:00 Z) to 11/17/2014 (00:01:00 Z)
Previous Next [ Day | 3-Days | 7-Days ]
First Last
Prev [ Day | 3-Days | 7-Days ] Next
First Last

Start Time:     :
End Time:     :     
Time (in GMT) :00 :50 :40 :30 :20 :10
Previous Next [ Day | 3-Days | 7-Days ]
First Last
Prev [ Day | 3-Days | 7-Days ] Next
First Last


123 => good data
MM => data is determined as missing
-- => data not received/configured
Back to Top Back to Top
11/18/2014 00:00 to 23:10 22.71 22.83 22.72 22.99 22.74 22.81
11/17/2014 23:00 to 22:10 22.87 22.81 22.93 22.94 22.95 22.87
11/17/2014 22:00 to 21:10 22.98 22.96 22.95 23.16 23.02 23.00
11/17/2014 21:00 to 20:10 22.93 22.97 22.82 22.96 23.03 22.81
11/17/2014 20:00 to 19:10 23.01 22.97 22.89 22.95 22.90 22.94
11/17/2014 19:00 to 18:10 22.84 22.77 22.67 22.58 22.48 22.75
11/17/2014 18:00 to 17:10 22.64 22.65 22.64 22.66 22.64 22.59
11/17/2014 17:00 to 16:10 22.65 22.66 22.77 22.65 22.74 22.56
11/17/2014 16:00 to 15:10 22.43 22.45 22.44 22.51 22.43 22.48
11/17/2014 15:00 to 14:10 22.62 22.81 23.02 23.17 23.03 22.75
11/17/2014 14:00 to 13:10 22.87 22.78 22.57 22.58 22.53 22.53
11/17/2014 13:00 to 12:10 22.34 22.61 22.63 22.60 22.43 22.25
11/17/2014 12:00 to 11:10 22.54 22.67 22.60 22.59 22.58 22.63
11/17/2014 11:00 to 10:10 22.57 22.52 22.62 22.53 22.49 22.59
11/17/2014 10:00 to 9:10 22.54 22.62 22.50 22.47 22.61 22.57
11/17/2014 09:00 to 8:10 22.58 22.60 22.60 22.66 22.54 22.59
11/17/2014 08:00 to 7:10 22.58 22.66 22.57 22.53 22.57 22.63
11/17/2014 07:00 to 6:10 22.63 22.63 22.63 22.66 22.73 22.64
11/17/2014 06:00 to 5:10 22.70 22.69 22.70 22.68 22.74 22.75
11/17/2014 05:00 to 4:10 22.80 22.81 22.83 22.75 22.95 22.82
11/17/2014 04:00 to 3:10 22.95 22.96 22.97 22.89 22.87 22.99
11/17/2014 03:00 to 2:10 23.00 23.05 23.03 22.95 22.96 23.02
11/17/2014 02:00 to 1:10 22.93 22.92 23.00 23.08 23.02 22.97
11/17/2014 01:00 to 0:10 22.99 23.00 23.00 22.93 22.93 22.97